AirNav   Everest Fuels
 
 1346 users online  

9Z8 Levelock Airport
Levelock, Alaska, USA

GOING TO LEVELOCK?


FAA INFORMATION EFFECTIVE 25 MARCH 2021

Location

FAA Identifier: 9Z8
Lat/Long: 59-07-37.5000N 156-51-35.6000W
59-07.625000N 156-51.593333W
59.1270833,-156.8598889
(estimated)
Elevation: 55.8 ft. / 17.0 m (surveyed)
Variation: 18E (2000)
From city: 1 mile NNW of LEVELOCK, AK
Time zone: UTC -8 (UTC -9 during Standard Time)

Airport Operations

Airport use: Open to the public
Activation date: 06/2002
Control tower: no
ARTCC: ANCHORAGE CENTER
FSS: KENAI FLIGHT SERVICE STATION [907-283-7211]
NOTAMs facility: ENA (NOTAM-D service available)
Attendance: UNATNDD
Wind indicator: lighted, WINDSOCKS IN SOFT SOIL; MAY BE UNRELIABLE.
Segmented circle: yes
Lights: ACTVT MIRL RY 01/19 - CTAF.
Beacon: white-green (lighted land airport)
ACTVT ROTG BCN - CTAF.

Airport Communications

CTAF: 122.9
UNICOM: 122.95

Nearby radio navigation aids

VOR radial/distance  VOR name  Freq  Var
AKNr336/24.4KING SALMON VORTAC112.8016E

 
NDB name  Hdg/Dist  Freq  Var  ID
CHINOOK343/23.535511EAUB .- ..- -...

Airport Services

Parking: tiedowns

Runway Information

Runway 1/19

Dimensions: 3284 x 60 ft. / 1001 x 18 m
Surface: gravel/dirt, in good condition
RY AND SHOLDERS SOFT AND MUDDY WHEN WET. MULTIPLE 2-4 INCH RUTS ON RY EDGES AND CIRCULAR RUTS NEAR RY THLDS.
Runway edge lights: medium intensity
RUNWAY 1  RUNWAY 19
Latitude: 59-07.381872N59-07.866497N
Longitude: 156-51.823312W156-51.364055W
Elevation: 55.4 ft.52.3 ft.
Traffic pattern: leftleft
Runway heading: 008 magnetic, 026 true188 magnetic, 206 true
Touchdown point: yes, no lightsyes, no lights
Obstructions: 5 ft. brush, 5 ft. from runway, 96 ft. both sides of centerline, 1:1 slope to clear6 ft. brush, 70 ft. from runway, 170 ft. right of centerline, 11:1 slope to clear

Airport Ownership and Management from official FAA records

Ownership: Publicly-owned
Owner: ALASKA DOT&PF SOUTHCOAST REGION
P.O. BOX 112500
JUNEAU, AK 99811-2500
Phone 907-465-4512
Manager: FLOYD WILSON
P. O. BOX 65
KING SALMON, AK 99613
Phone 907-246-3325

Airport Operational Statistics

Aircraft operations: avg 28/week *
51% transient general aviation
35% air taxi
14% local general aviation
* for 12-month period ending 31 December 2017

Additional Remarks

RY CONDITION NOT MONITORED; RECOMMEND VISUAL INSPECTION PRIOR TO LANDING.
SAFETY AREAS BYD THLDS SINKING SOFT SAND USE ONLY AS EMERGENCY OVERRUN.

Instrument Procedures

There are no published instrument procedures at 9Z8.

Some nearby airports with instrument procedures:

PANW - New Stuyahok Airport (25 nm NW)
PFWS - South Naknek Nr 2 Airport (26 nm S)
PAKN - King Salmon Airport (28 nm S)
PAIG - Igiugig Airport (32 nm E)
PAJZ - Koliganek Airport (38 nm N)
 
Loc | Ops | Rwys | IFR | FBO | Links
Com | Nav | Svcs | Stats | Notes

Crowley
 
Area around 9Z8 (Levelock Airport)
 
Road maps at: MapQuest Bing Google
 
Aerial photo
No photo
 
Sectional chart

 
Airport distance calculator
Flying to Levelock Airport? Find the distance to fly.

From to 9Z8

Sunrise and sunset
Times for 14-Apr-2021
 Local
(UTC-8)
 Zulu
(UTC)
Morning civil twilight06:3214:32
Sunrise07:1615:16
Sunset21:3905:39
Evening civil twilight22:2406:24

Current date and time
Zulu (UTC)  14-Apr-2021 13:51:24
Local (UTC-8)  14-Apr-2021 05:51:24
 
METAR
PANW 
24nm NW 
141256Z AUTO 35007KT 8SM UP 00/00 A2979 RMK AO2 SLP096 P0000 T00000000 FZRANO $
PFWS 
26nm S 
141256Z AUTO 35006KT 10SM OVC042 01/01 A2977 RMK AO2 UPB39E55 SLP125 P0000 T00060006 FZRANO
PAKN 
27nm S 
141254Z AUTO 35004KT 10SM -RA OVC039 01/M01 A2972 RMK AO2 RAB40UPB41E45 SLP064 P0000 T00061011 TSNO
PAIG 
32nm E 
141256Z AUTO 27005KT FEW035 OVC060 01/M01 A2974 RMK AO2 SLP081 T00111006 PWINO FZRANO $
PAJZ 
38nm N 
141256Z AUTO 36008KT 7SM -RA FEW025 OVC039 01/00 A2983 RMK AO2 SLP110 P0000 T00060000 FZRANO $
TAF
PAKN 
27nm S 
140532Z 1406/1506 07007KT P6SM -RA BKN035 OVC050 FM141000 03004KT P6SM -RA OVC025 FM141400 34006KT P6SM -RA OVC009 FM141800 31005KT P6SM -RA OVC015 FM142300 28008KT P6SM -SNRA OVC035
NOTAMs
Click for the latest NOTAMs
NOTAMs are issued by the DoD/FAA and will open in a separate window not controlled by AirNav.

 

 
 

Would you like to see your business listed on this page?

 If your business provides an interesting product or service to pilots, flight crews, aircraft, or users of the Levelock Airport, you should consider listing it here.  To start the listing process, click on the button below
 
Add a business
 

Other Pages about Levelock Airport

Update a link
 
Copyright © AirNav, LLC. All rights reserved. Privacy Policy  Contact